CW1020 Weather Reports


time (UTC)temp
C
wind
direction
speed
KPH
gust
KPH
rain 1hr
cm
rain 24hr
cm
rain mn
cm
humidity
%
barometer
mb
20260901104002 11 0 0.0 0.0 0.00 0.00 0.00 52 1017.1
20260901103503 11 0 0.0 0.0 0.00 0.00 0.00 52 1017.1
20260901103003 11 0 0.0 0.0 0.00 0.00 0.00 52 1017.0
20260901102502 11 0 0.0 0.0 0.00 0.00 0.00 52 1017.0
20260901102002 11 0 0.0 0.0 0.00 0.00 0.00 52 1017.0
20260901101003 11 0 0.0 0.0 0.00 0.00 0.00 52 1017.1
20260901100503 11 0 0.0 0.0 0.00 0.00 0.00 52 1017.2
20260901100003 11 83 0.0 1.6 0.00 0.00 0.00 52 1017.1
20260901095502 11 0 0.0 0.0 0.00 0.00 0.00 52 1017.2
20260901095002 11 0 0.0 0.0 0.00 0.00 0.00 51 1017.2
20260901094503 11 0 0.0 0.0 0.00 0.00 0.00 51 1017.1
20260901094002 12 99 0.0 1.6 0.00 0.00 0.00 51 1017.2
20260901093503 12 98 0.0 1.6 0.00 0.00 0.00 50 1017.1
20260901093003 12 90 0.0 1.6 0.00 0.00 0.00 50 1017.2
20260901092503 12 90 0.0 1.6 0.00 0.00 0.00 49 1017.2
20260901092002 12 0 0.0 0.0 0.00 0.00 0.00 49 1017.3
20260901091503 12 0 0.0 0.0 0.00 0.00 0.00 49 1017.3
20260901091002 12 0 0.0 0.0 0.00 0.00 0.00 49 1017.2
20260901090502 12 0 0.0 0.0 0.00 0.00 0.00 49 1017.3
20260901090003 13 0 0.0 0.0 0.00 0.00 0.00 48 1017.3
20260901085503 13 0 0.0 0.0 0.00 0.00 0.00 48 1017.3
20260901085002 13 0 0.0 0.0 0.00 0.00 0.00 48 1017.4
20260901084502 13 0 0.0 0.0 0.00 0.00 0.00 48 1017.4
20260901084003 13 90 0.0 1.6 0.00 0.00 0.00 47 1017.4
20260901083502 13 0 0.0 0.0 0.00 0.00 0.00 46 1017.4
20260901083003 13 0 0.0 0.0 0.00 0.00 0.00 46 1017.4
20260901082503 13 0 0.0 0.0 0.00 0.00 0.00 46 1017.5
20260901082003 14 0 0.0 0.0 0.00 0.00 0.00 45 1017.4
20260901075503 15 82 0.0 1.6 0.00 0.00 0.00 44 1017.7
20260901075003 15 77 0.0 1.6 0.00 0.00 0.00 44 1017.7
20260901074503 15 51 0.0 1.6 0.00 0.00 0.00 43 1017.6
20260901073502 15 0 0.0 0.0 0.00 0.00 0.00 44 1017.6
20260901073003 15 50 0.0 1.6 0.00 0.00 0.00 44 1017.5
20260901072503 15 50 0.0 1.6 0.00 0.00 0.00 43 1017.5
20260901072003 15 0 0.0 0.0 0.00 0.00 0.00 43 1017.5
20260901071503 16 0 0.0 0.0 0.00 0.00 0.00 43 1017.5
20260901071003 16 0 0.0 0.0 0.00 0.00 0.00 42 1017.5
20260901070502 16 0 0.0 0.0 0.00 0.00 0.00 42 1017.5
20260901065503 16 0 0.0 0.0 0.00 0.00 0.00 41 1017.4
20260901065003 16 0 0.0 0.0 0.00 0.00 0.00 41 1017.4
20260901064503 17 0 0.0 0.0 0.00 0.00 0.00 40 1017.4
20260901064003 17 49 0.0 3.2 0.00 0.00 0.00 39 1017.4
20260901063503 17 49 0.0 1.6 0.00 0.00 0.00 39 1017.4
20260901063003 17 0 0.0 0.0 0.00 0.00 0.00 38 1017.4
20260901062503 17 0 0.0 0.0 0.00 0.00 0.00 38 1017.4
20260901062002 18 59 0.0 1.6 0.00 0.00 0.00 37 1017.3
20260901061503 18 0 0.0 0.0 0.00 0.00 0.00 36 1017.4
20260901061003 18 134 1.6 1.6 0.00 0.00 0.00 36 1017.2
20260901060503 18 126 1.6 4.8 0.00 0.00 0.00 36 1017.2
20260901060003 18 124 1.6 4.8 0.00 0.00 0.00 37 1017.3
20260901055503 18 129 0.0 4.8 0.00 0.00 0.00 37 1017.3
20260901055003 18 119 1.6 3.2 0.00 0.00 0.00 38 1017.3
20260901053503 18 75 1.6 3.2 0.00 0.00 0.00 38 1017.3
20260901052503 18 150 3.2 6.4 0.00 0.00 0.00 38 1017.4
20260901052004 18 144 3.2 6.4 0.00 0.00 0.00 39 1017.4
20260901051503 17 143 1.6 8.0 0.00 0.00 0.00 39 1017.4
20260901051002 17 132 0.0 4.8 0.00 0.00 0.00 38 1017.6
20260901045503 18 66 0.0 1.6 0.00 0.00 0.00 38 1017.4
20260901045002 18 61 0.0 4.8 0.00 0.00 0.00 37 1017.4
20260901044506 18 0 0.0 0.0 0.00 0.00 0.00 37 1017.3
20260901043503 19 0 0.0 0.0 0.00 0.00 0.00 36 1017.3
20260901042503 19 55 1.6 1.6 0.00 0.00 0.00 35 1017.0
20260901041503 20 0 0.0 0.0 0.00 0.00 0.00 35 1016.9
20260901040503 20 58 1.6 3.2 0.00 0.00 0.00 34 1016.9
20260901040003 20 69 3.2 3.2 0.00 0.00 0.00 33 1016.8
20260901035503 21 73 1.6 4.8 0.00 0.00 0.00 33 1016.6
20260901035003 21 73 0.0 4.8 0.00 0.00 0.00 32 1016.5
20260901034503 21 0 0.0 0.0 0.00 0.00 0.00 32 1016.5
20260901034003 21 0 0.0 0.0 0.00 0.00 0.00 32 1016.5
20260901033503 21 0 0.0 0.0 0.00 0.00 0.00 31 1016.4
20260901033003 21 171 0.0 3.2 0.00 0.00 0.00 31 1016.3
20260901032504 21 0 0.0 0.0 0.00 0.00 0.00 31 1016.2
20260901031503 22 103 0.0 3.2 0.00 0.00 0.00 30 1016.1
20260901031003 22 0 0.0 0.0 0.00 0.00 0.00 30 1016.0
20260901030503 22 26 0.0 1.6 0.00 0.00 0.00 29 1016.0
20260901030003 22 0 1.6 0.0 0.00 0.00 0.00 28 1015.9
20260901025503 22 35 1.6 4.8 0.00 0.00 0.00 28 1016.0
20260901025004 22 74 0.0 4.8 0.00 0.00 0.00 27 1016.0
20260901024503 23 178 0.0 1.6 0.00 0.00 0.00 27 1015.9
20260901024003 23 178 1.6 4.8 0.00 0.00 0.00 27 1015.8
20260901023503 23 174 3.2 3.2 0.00 0.00 0.00 26 1015.7
20260901023003 23 169 3.2 8.0 0.00 0.00 0.00 26 1015.7
20260901022503 23 184 3.2 16.1 0.00 0.00 0.00 26 1015.7
20260901022003 23 187 6.4 11.3 0.00 0.00 0.00 25 1015.7
20260901021503 23 186 8.0 11.3 0.00 0.00 0.00 25 1015.6
20260901021003 24 187 6.4 16.1 0.00 0.00 0.00 25 1015.6
20260901020504 24 178 4.8 16.1 0.00 0.00 0.00 24 1015.6
20260901020003 25 170 3.2 9.7 0.00 0.00 0.00 24 1015.5
20260901015503 25 175 4.8 8.0 0.00 0.00 0.00 24 1015.5
20260901015004 25 162 4.8 11.3 0.00 0.00 0.00 23 1015.5
20260901014503 26 151 1.6 16.1 0.00 0.00 0.00 23 1015.5
20260901014004 26 248 3.2 1.6 0.00 0.00 0.00 22 1015.5
20260901013503 26 230 4.8 6.4 0.00 0.00 0.00 22 1015.5
20260901013003 26 253 3.2 6.4 0.00 0.00 0.00 22 1015.5
20260901012503 26 226 4.8 8.0 0.00 0.00 0.00 22 1015.4
20260901012003 26 192 8.0 9.7 0.00 0.00 0.00 22 1015.4
20260901010503 26 233 12.9 22.5 0.00 0.00 0.00 21 1015.3
20260901010004 26 230 12.9 24.1 0.00 0.00 0.00 21 1015.3
20260901005503 26 220 12.9 22.5 0.00 0.00 0.00 21 1015.3
20260901005003 26 231 12.9 25.7 0.00 0.00 0.00 20 1015.3
20260901004503 26 233 14.5 19.3 0.00 0.00 0.00 20 1015.3
20260901004004 26 241 14.5 22.5 0.00 0.00 0.00 21 1015.4
20260901003503 26 238 14.5 24.1 0.00 0.00 0.00 20 1015.4
20260901003003 26 239 14.5 25.7 0.00 0.00 0.00 20 1015.4
20260901001503 26 226 14.5 30.6 0.00 0.00 0.00 20 1015.6
20260901001003 27 232 12.9 20.9 0.00 0.00 0.00 20 1015.5
20260901000503 27 235 14.5 29.0 0.00 0.00 0.00 20 1015.5
20260831235503 27 240 14.5 33.8 0.00 0.00 0.00 20 1015.4
20260831235004 27 235 16.1 24.1 0.00 0.00 0.00 20 1015.4
20260831233503 27 242 16.1 29.0 0.00 0.00 0.00 20 1015.4
20260831233004 27 240 14.5 27.4 0.00 0.00 0.00 20 1015.5
20260831232503 27 235 12.9 29.0 0.00 0.00 0.00 20 1015.6
20260831232003 27 240 14.5 20.9 0.00 0.00 0.00 20 1015.6
20260831231004 27 234 16.1 22.5 0.00 0.00 0.00 20 1015.6
20260831230503 27 237 16.1 27.4 0.00 0.00 0.00 20 1015.6
20260831230004 27 233 14.5 29.0 0.00 0.00 0.00 20 1015.7
20260831225503 27 213 14.5 19.3 0.00 0.00 0.00 20 1015.7
20260831225003 27 221 16.1 22.5 0.00 0.00 0.00 20 1015.7
20260831224003 27 229 17.7 27.4 0.00 0.00 0.00 20 1015.8
20260831223503 27 233 14.5 25.7 0.00 0.00 0.00 20 1015.8
20260831222503 27 235 16.1 29.0 0.00 0.00 0.00 20 1015.9
20260831222003 27 241 16.1 25.7 0.00 0.00 0.00 20 1016.0
20260831221004 27 236 17.7 32.2 0.00 0.00 0.00 20 1016.0
20260831220503 27 236 17.7 27.4 0.00 0.00 0.00 20 1016.2
20260831215504 27 240 17.7 29.0 0.00 0.00 0.00 19 1016.2
20260831215003 27 242 16.1 29.0 0.00 0.00 0.00 19 1016.2
20260831214504 27 241 14.5 22.5 0.00 0.00 0.00 20 1016.3
20260831214003 27 232 19.3 25.7 0.00 0.00 0.00 20 1016.3
20260831213504 26 237 20.9 27.4 0.00 0.00 0.00 19 1016.3
20260831213003 26 235 20.9 30.6 0.00 0.00 0.00 19 1016.3
20260831212502 27 237 20.9 32.2 0.00 0.00 0.00 19 1016.4
20260831212002 26 237 22.5 32.2 0.00 0.00 0.00 18 1016.5
20260831211002 27 225 20.9 30.6 0.00 0.00 0.00 18 1016.5
20260831210502 26 224 20.9 27.4 0.00 0.00 0.00 18 1016.6
20260831210002 27 236 19.3 37.0 0.00 0.00 0.00 17 1016.6
20260831205502 27 238 17.7 33.8 0.00 0.00 0.00 17 1016.6
20260831204502 27 237 17.7 29.0 0.00 0.00 0.00 17 1016.6
20260831204002 27 233 17.7 25.7 0.00 0.00 0.00 16 1016.5
20260831203502 27 239 19.3 27.4 0.00 0.00 0.00 17 1016.6
20260831203002 27 233 17.7 30.6 0.00 0.00 0.00 17 1016.5
20260831202502 27 240 17.7 30.6 0.00 0.00 0.00 17 1016.6
20260831202002 27 233 19.3 33.8 0.00 0.00 0.00 18 1016.6
20260831201503 26 237 17.7 30.6 0.00 0.00 0.00 18 1016.7
20260831201002 27 237 17.7 27.4 0.00 0.00 0.00 18 1016.7
20260831200503 26 229 17.7 24.1 0.00 0.00 0.00 19 1016.6
20260831200003 26 240 17.7 25.7 0.00 0.00 0.00 20 1016.7
20260831195002 26 235 16.1 30.6 0.00 0.00 0.00 21 1016.8
20260831194502 26 231 17.7 24.1 0.00 0.00 0.00 22 1016.8
20260831194002 26 233 17.7 27.4 0.00 0.00 0.00 22 1016.8
20260831193502 26 234 17.7 30.6 0.00 0.00 0.00 22 1016.8
20260831193003 26 235 16.1 20.9 0.00 0.00 0.00 22 1016.9
20260831192502 26 237 16.1 27.4 0.00 0.00 0.00 22 1016.9
20260831192002 26 238 14.5 27.4 0.00 0.00 0.00 23 1017.0
20260831191503 26 231 14.5 22.5 0.00 0.00 0.00 23 1017.1
20260831191002 26 236 14.5 24.1 0.00 0.00 0.00 23 1017.1
20260831190503 26 241 14.5 22.5 0.00 0.00 0.00 24 1017.0
20260831190003 26 241 16.1 22.5 0.00 0.00 0.00 24 1017.0
20260831185502 26 237 14.5 27.4 0.00 0.00 0.00 24 1017.0
20260831185002 26 235 12.9 29.0 0.00 0.00 0.00 24 1017.0
20260831184502 26 242 12.9 19.3 0.00 0.00 0.00 25 1017.1
20260831184003 26 237 14.5 22.5 0.00 0.00 0.00 25 1017.1
20260831183502 26 236 14.5 19.3 0.00 0.00 0.00 25 1017.1
20260831182502 26 237 12.9 22.5 0.00 0.00 0.00 26 1017.1
20260831182002 26 239 12.9 19.3 0.00 0.00 0.00 27 1017.2
20260831181503 26 237 12.9 24.1 0.00 0.00 0.00 27 1017.2
20260831181002 25 241 14.5 19.3 0.00 0.00 0.00 27 1017.2
20260831180503 25 233 12.9 25.7 0.00 0.00 0.00 28 1017.3
20260831180002 25 233 14.5 20.9 0.00 0.00 0.00 29 1017.3
20260831175502 25 240 14.5 20.9 0.00 0.00 0.00 29 1017.3
20260831175002 25 242 12.9 25.7 0.00 0.00 0.00 30 1017.4
20260831174502 25 238 8.0 20.9 0.00 0.00 0.00 29 1017.4
20260831174002 25 241 8.0 17.7 0.00 0.00 0.00 30 1017.4
20260831173502 25 245 8.0 17.7 0.00 0.00 0.00 31 1017.4
20260831173002 24 244 6.4 14.5 0.00 0.00 0.00 31 1017.3
20260831172502 24 255 4.8 14.5 0.00 0.00 0.00 32 1017.4
20260831172002 24 264 4.8 9.7 0.00 0.00 0.00 33 1017.4
20260831171502 23 248 4.8 14.5 0.00 0.00 0.00 33 1017.4
20260831171002 23 246 8.0 12.9 0.00 0.00 0.00 34 1017.5
20260831170002 23 243 9.7 16.1 0.00 0.00 0.00 35 1017.4
20260831165503 23 245 9.7 12.9 0.00 0.00 0.00 36 1017.3
20260831165002 23 243 8.0 16.1 0.00 0.00 0.00 36 1017.3
20260831164502 23 246 6.4 14.5 0.00 0.00 0.00 36 1017.3
20260831163502 22 253 1.6 4.8 0.00 0.00 0.00 37 1017.3
20260831163003 22 240 1.6 4.8 0.00 0.00 0.00 38 1017.4
20260831162502 21 251 0.0 4.8 0.00 0.00 0.00 39 1017.4
20260831162002 20 327 0.0 1.6 0.00 0.00 0.00 41 1017.2
20260831161503 20 0 0.0 0.0 0.00 0.00 0.00 42 1017.2
20260831161002 19 0 0.0 0.0 0.00 0.00 0.00 43 1017.2
20260831160502 18 329 0.0 1.6 0.00 0.00 0.00 45 1017.2
20260831160003 18 343 0.0 3.2 0.00 0.00 0.00 47 1017.3
20260831155002 16 0 0.0 0.0 0.00 0.00 0.00 54 1017.3
20260831154503 16 73 0.0 1.6 0.00 0.00 0.00 56 1017.4
20260831154002 15 74 0.0 4.8 0.00 0.00 0.00 58 1017.4
20260831153503 15 0 0.0 0.0 0.00 0.00 0.00 59 1017.4
20260831153003 14 0 0.0 0.0 0.00 0.00 0.00 61 1017.5
20260831152502 14 0 0.0 0.0 0.00 0.00 0.00 63 1017.4
20260831151503 13 0 0.0 0.0 0.00 0.00 0.00 65 1017.5
20260831150503 12 0 0.0 0.0 0.00 0.00 0.00 66 1017.4
20260831150003 12 0 0.0 0.0 0.00 0.00 0.00 66 1017.4
20260831145502 12 0 0.0 0.0 0.00 0.00 0.00 66 1017.4
20260831144002 12 0 0.0 0.0 0.00 0.00 0.00 65 1017.3
20260831143502 12 0 0.0 0.0 0.00 0.00 0.00 65 1017.3
20260831143003 12 0 0.0 0.0 0.00 0.00 0.00 65 1017.3
20260831142502 12 0 0.0 0.0 0.00 0.00 0.00 65 1017.2
20260831142002 12 0 0.0 0.0 0.00 0.00 0.00 64 1017.1
20260831141503 12 0 0.0 0.0 0.00 0.00 0.00 64 1017.1
20260831141003 12 0 0.0 0.0 0.00 0.00 0.00 64 1017.0
20260831140502 12 0 0.0 0.0 0.00 0.00 0.00 64 1017.0
20260831140002 12 0 0.0 0.0 0.00 0.00 0.00 64 1017.0
20260831135503 12 0 0.0 0.0 0.00 0.00 0.00 64 1016.9
20260831135002 12 0 0.0 0.0 0.00 0.00 0.00 63 1016.8
20260831134503 12 0 0.0 0.0 0.00 0.00 0.00 62 1016.7
20260831134002 12 75 0.0 1.6 0.00 0.00 0.00 60 1016.7
20260831133502 12 0 0.0 0.0 0.00 0.00 0.00 60 1016.7
20260831133002 12 0 0.0 0.0 0.00 0.00 0.00 60 1016.5
20260831132502 13 0 0.0 0.0 0.00 0.00 0.00 60 1016.5
20260831132002 13 0 0.0 0.0 0.00 0.00 0.00 60 1016.5
20260831131502 13 0 0.0 0.0 0.00 0.00 0.00 60 1016.4
20260831131002 13 0 0.0 0.0 0.00 0.00 0.00 59 1016.4
20260831125503 13 0 0.0 0.0 0.00 0.00 0.00 59 1016.6
20260831125002 13 0 0.0 0.0 0.00 0.00 0.00 59 1016.6
20260831123502 13 0 0.0 0.0 0.00 0.00 0.00 59 1016.4
20260831123002 13 0 0.0 0.0 0.00 0.00 0.00 59 1016.3
20260831122503 13 89 1.6 3.2 0.00 0.00 0.00 59 1016.4
20260831122003 13 76 0.0 3.2 0.00 0.00 0.00 59 1016.5
20260831121502 13 73 0.0 1.6 0.00 0.00 0.00 60 1016.4
20260831121002 14 74 0.0 1.6 0.00 0.00 0.00 59 1016.4
20260831120002 14 0 0.0 0.0 0.00 0.00 0.00 59 1016.3
20260831115503 14 0 0.0 0.0 0.00 0.00 0.00 58 1016.3
20260831114003 14 0 0.0 0.0 0.00 0.00 0.00 58 1016.5
20260831113502 14 0 0.0 0.0 0.00 0.00 0.00 58 1016.5
20260831113002 14 0 0.0 0.0 0.00 0.00 0.00 57 1016.5
20260831111503 15 62 0.0 1.6 0.00 0.00 0.00 57 1016.5
20260831111002 15 0 0.0 0.0 0.00 0.00 0.00 57 1016.5
20260831110503 15 0 0.0 0.0 0.00 0.00 0.00 57 1016.5
20260831105502 15 63 0.0 1.6 0.00 0.00 0.00 58 1016.5
20260831104503 14 0 0.0 0.0 0.00 0.00 0.00 58 1016.6